Terug naar catalogus

STARLINK-6164

ActiefCommunicatieVLEO
NORAD 57152·PAYLOAD·🇺🇸 United States

Gelanceerd Jun 23, 2023 vanaf Cape Canaveral Space Force Station

Loading…

Volgende Passages (komende 24 uur)

TLE

VersSource: CelesTrak SupGP

Epoch: Sep 14, 2026, 22:22 UTC

1 57152C 23090BD  26257.93243056  .00024620  00000+0  89177-3 0  2573
2 57152  43.0019 274.5028 0001923 276.8701 191.3996 15.27563511    18

Volg STARLINK-6164 in realtime met AllMySat

Download on the App Store